TimeEST,TemperatureF,Dew PointF,Humidity,Sea Level PressureIn,VisibilityMPH,Wind Direction,Wind SpeedMPH,Gust SpeedMPH,PrecipitationIn,Events,Conditions,WindDirDegrees,DateUTC
1:56 AM,48.9,34.0,56,30.40,10.0,ENE,3.5,-,N/A,,Overcast,70,2013-01-11 06:56:00
2:56 AM,48.0,35.1,61,30.40,10.0,ENE,3.5,-,0.00,,Overcast,70,2013-01-11 07:56:00
3:14 AM,48.0,34.0,58,30.40,10.0,ENE,5.8,-,N/A,,Overcast,60,2013-01-11 08:14:00
3:56 AM,48.0,32.0,54,30.38,10.0,ENE,5.8,-,N/A,,Overcast,60,2013-01-11 08:56:00
4:56 AM,44.1,37.0,76,30.36,6.0,NE,4.6,-,0.01,Rain,Light Rain,50,2013-01-11 09:56:00
5:56 AM,42.1,37.9,85,30.35,4.0,NE,6.9,-,0.02,Rain,Light Rain,50,2013-01-11 10:56:00
6:24 AM,41.0,37.9,89,30.37,2.5,North,3.5,-,0.02,Rain,Light Rain,360,2013-01-11 11:24:00
6:56 AM,41.0,37.9,89,30.38,2.5,NNW,4.6,-,0.04,Rain,Light Rain,340,2013-01-11 11:56:00
7:26 AM,41.0,37.9,89,30.37,5.0,NNE,5.8,-,0.03,,Overcast,30,2013-01-11 12:26:00
7:38 AM,41.0,37.9,89,30.36,3.0,NE,5.8,-,0.03,,Overcast,50,2013-01-11 12:38:00
7:52 AM,39.2,37.4,93,30.36,1.8,NE,6.9,-,0.04,Rain,Light Rain,50,2013-01-11 12:52:00
7:56 AM,41.0,37.9,89,30.37,1.5,NE,5.8,-,0.04,Rain,Light Rain,50,2013-01-11 12:56:00
8:15 AM,39.9,37.9,93,30.37,1.2,NE,5.8,-,0.02,Rain,Light Rain,40,2013-01-11 13:15:00
8:23 AM,41.0,37.9,89,30.36,1.2,NE,4.6,-,0.02,Rain,Light Rain,50,2013-01-11 13:23:00
8:35 AM,41.0,39.0,93,30.37,2.0,NNE,4.6,-,0.03,Rain,Light Rain,30,2013-01-11 13:35:00
8:44 AM,41.0,39.0,93,30.36,6.0,NE,4.6,-,0.03,,Overcast,40,2013-01-11 13:44:00
8:56 AM,41.0,39.0,93,30.37,5.0,Calm,Calm,-,0.03,,Overcast,0,2013-01-11 13:56:00
9:08 AM,41.0,39.0,93,30.36,6.0,Calm,Calm,-,N/A,,Overcast,0,2013-01-11 14:08:00
9:20 AM,42.1,39.0,89,30.36,7.0,Calm,Calm,-,N/A,,Overcast,0,2013-01-11 14:20:00
9:49 AM,42.1,39.9,92,30.36,3.0,North,3.5,-,0.00,Rain,Light Rain,10,2013-01-11 14:49:00
9:51 AM,42.8,39.2,87,30.36,2.5,Calm,Calm,-,0.00,Rain,Light Rain,0,2013-01-11 14:51:00
9:56 AM,42.1,39.9,92,30.36,2.0,Calm,Calm,-,0.00,Rain,Light Rain,0,2013-01-11 14:56:00
10:03 AM,42.1,39.9,92,30.36,2.0,NW,3.5,-,0.01,Rain,Light Rain,320,2013-01-11 15:03:00
10:20 AM,43.0,39.9,89,30.36,4.0,NNW,4.6,-,0.01,Rain,Light Rain,340,2013-01-11 15:20:00
10:35 AM,43.0,39.9,89,30.34,7.0,NE,4.6,-,0.01,,Overcast,40,2013-01-11 15:35:00
11:56 AM,44.1,42.1,93,30.29,4.0,NE,3.5,-,N/A,,Overcast,40,2013-01-11 16:56:00
12:19 PM,44.1,42.1,93,30.28,2.0,Calm,Calm,-,N/A,,Overcast,0,2013-01-11 17:19:00
12:28 PM,44.1,42.1,93,30.27,1.5,Calm,Calm,-,N/A,,Overcast,0,2013-01-11 17:28:00
12:56 PM,45.0,43.0,93,30.25,0.8,East,3.5,-,N/A,,Overcast,80,2013-01-11 17:56:00
1:08 PM,45.0,43.0,93,30.24,0.5,East,3.5,-,N/A,Fog,Fog,90,2013-01-11 18:08:00
1:56 PM,46.0,44.1,93,30.23,0.2,Calm,Calm,-,N/A,Fog,Fog,0,2013-01-11 18:56:00
2:56 PM,46.9,45.0,93,30.21,0.2,ESE,3.5,-,N/A,Fog,Fog,110,2013-01-11 19:56:00
3:56 PM,46.9,45.0,93,30.20,0.2,Calm,Calm,-,N/A,Fog,Fog,0,2013-01-11 20:56:00
4:56 PM,48.0,46.0,93,30.20,0.2,Calm,Calm,-,N/A,Fog,Fog,0,2013-01-11 21:56:00
5:56 PM,48.0,46.0,93,30.20,0.2,Calm,Calm,-,N/A,Fog,Fog,0,2013-01-11 22:56:00
6:56 PM,48.0,46.9,96,30.19,0.2,Calm,Calm,-,N/A,Fog,Fog,0,2013-01-11 23:56:00
7:56 PM,48.0,46.0,93,30.18,0.5,Calm,Calm,-,N/A,Fog,Fog,0,2013-01-12 00:56:00
8:14 PM,48.0,46.0,93,30.19,1.0,West,5.8,-,N/A,,Mist,280,2013-01-12 01:14:00
8:28 PM,48.0,46.0,93,30.18,3.0,Calm,Calm,-,N/A,,Overcast,0,2013-01-12 01:28:00
8:56 PM,48.0,46.0,93,30.19,3.0,Calm,Calm,-,N/A,,Overcast,0,2013-01-12 01:56:00
9:05 PM,48.0,46.0,93,30.19,2.5,WSW,4.6,-,N/A,,Overcast,250,2013-01-12 02:05:00
9:56 PM,46.9,46.0,97,30.17,3.0,Calm,Calm,-,N/A,,Overcast,0,2013-01-12 02:56:00
10:20 PM,46.9,46.0,97,30.17,2.0,Calm,Calm,-,N/A,,Overcast,0,2013-01-12 03:20:00
10:28 PM,46.9,46.0,97,30.17,1.2,Calm,Calm,-,N/A,,Overcast,0,2013-01-12 03:28:00
10:54 PM,46.4,46.4,100,30.17,0.8,Calm,Calm,-,N/A,,Mist,0,2013-01-12 03:54:00
10:56 PM,46.9,46.0,97,30.17,0.8,Calm,Calm,-,N/A,,Mist,0,2013-01-12 03:56:00
11:04 PM,46.9,46.0,97,30.16,0.5,Calm,Calm,-,N/A,Fog,Fog,0,2013-01-12 04:04:00
11:56 PM,48.0,46.0,93,30.17,0.2,WNW,4.6,-,N/A,Fog,Fog,290,2013-01-12 04:56:00